Satellite: PHARMSAT
Catalog number: 35002
Epoch time:      12053.47316259
Element set:     804
Inclination:      040.4649 deg
RA of node:       076.8989 deg
Eccentricity:    0.0006087
Arg of perigee:   297.9978 deg
Mean anomaly:     062.0228 deg
Mean motion:   15.65664785 rev/day
Decay rate:     4.7281e-04 rev/day^2
Epoch rev:           15608
Checksum:              338

Satellite: METEOR-M
Catalog number: 35865
Epoch time:      12054.72730493
Element set:     170
Inclination:      098.6705 deg
RA of node:       111.1214 deg
Eccentricity:    0.0003122
Arg of perigee:   035.6459 deg
Mean anomaly:     324.4926 deg
Mean motion:   14.21855837 rev/day
Decay rate:       -2.3e-07 rev/day^2
Epoch rev:           12633
Checksum:              274

Satellite: RS-38
Catalog number: 35869
Epoch time:      12054.83529238
Element set:     179
Inclination:      098.6672 deg
RA of node:       111.2407 deg
Eccentricity:    0.0005133
Arg of perigee:   031.9577 deg
Mean anomaly:     328.1910 deg
Mean motion:   14.22055333 rev/day
Decay rate:        2.4e-07 rev/day^2
Epoch rev:           12636
Checksum:              296

Satellite: JUGNU
Catalog number: 37839
Epoch time:      12053.84326970
Element set:      93
Inclination:      019.9615 deg
RA of node:       336.9786 deg
Eccentricity:    0.0019482
Arg of perigee:   034.5113 deg
Mean anomaly:     325.6540 deg
Mean motion:   14.12027202 rev/day
Decay rate:       6.19e-06 rev/day^2
Epoch rev:            1892
Checksum:              297

Satellite: SRMSAT
Catalog number: 37841
Epoch time:      12053.95332316
Element set:    0096
Inclination:      019.9742 deg
RA of node:       338.9476 deg
Eccentricity:    0.0011707
Arg of perigee:   003.8865 deg
Mean anomaly:     356.1630 deg
Mean motion:   14.10116249 rev/day
Decay rate:       2.64e-06 rev/day^2
Epoch rev:           01891
Checksum:              292

Satellite: RAX-2
Catalog number: 37853
Epoch time:      12053.94856459
Element set:    0114
Inclination:      101.7132 deg
RA of node:       041.7547 deg
Eccentricity:    0.0250908
Arg of perigee:   319.1716 deg
Mean anomaly:     039.0906 deg
Mean motion:   14.78937030 rev/day
Decay rate:      6.129e-05 rev/day^2
Epoch rev:           01736
Checksum:              303

Satellite: AUBIESAT
Catalog number: 37854
Epoch time:      12053.93012434
Element set:     106
Inclination:      101.7166 deg
RA of node:       041.8386 deg
Eccentricity:    0.0251037
Arg of perigee:   318.6343 deg
Mean anomaly:     039.6078 deg
Mean motion:   14.79248141 rev/day
Decay rate:      6.913e-05 rev/day^2
Epoch rev:            1734
Checksum:              285

Satellite: HRBE
Catalog number: 37855
Epoch time:      12053.93434127
Element set:    0119
Inclination:      101.7181 deg
RA of node:       041.8324 deg
Eccentricity:    0.0251980
Arg of perigee:   318.7611 deg
Mean anomaly:     039.4793 deg
Mean motion:   14.79149398 rev/day
Decay rate:      6.512e-05 rev/day^2
Epoch rev:           01734
Checksum:              303

Satellite: RS-39
Catalog number: 38051
Epoch time:      12054.83254137
Element set:      90
Inclination:      051.6525 deg
RA of node:       343.9472 deg
Eccentricity:    0.0011711
Arg of perigee:   352.7574 deg
Mean anomaly:     035.1393 deg
Mean motion:   15.22409275 rev/day
Decay rate:      9.083e-05 rev/day^2
Epoch rev:             454
Checksum:              286

/EX
_______________________________________________
Via the Keps mailing list courtesy of AMSAT-NA
http://amsat.org/mailman/listinfo/keps

--- ViaMAIL!/WC v1.60d
 * Origin: Chowdanet (401-724-4410) telnet://chowdanet.com  (1:323/120)